Regional Weather Roundup
Issued by NWS

Home | Current Version | Previous Version | Graphics & Text | Print | Product List | Glossary On
Versions: 1 2 3 4 5 6 7 8 9 10 11 12 13 14 15 16 17 18 19 20 21 22 23 24 25 26 27 28 29 30 31 32 33 34 35 36 37 38 39 40 41 42 43 44 45 46 47 48 49 50
000
ASUS43 KMKX 020911
RWRWI

WISCONSIN REGIONAL WEATHER ROUNDUP
NATIONAL WEATHER SERVICE MILWAUKEE/SULLIVAN WI
400 AM CDT SAT AUG 02 2014

NOTE: "FAIR" INDICATES FEW OR NO CLOUDS BELOW 12,000 FEET WITH NO
SIGNIFICANT WEATHER AND/OR OBSTRUCTIONS TO VISIBILITY.

WIZ001-002-006>008-014>016-023>028-021000-
NORTHWEST WISCONSIN

CITY           SKY/WX    TMP DP  RH WIND       PRES   REMARKS
SUPERIOR ARPT  CLEAR     50  49  97 CALM      30.12S
ASHLAND        PTCLDY    54  53  97 CALM      30.13R FOG
HAYWARD        PTCLDY    55  54  96 NE3       30.12S
SIREN          CLEAR     57  56  95 CALM      30.10F
RICE LAKE      FOG       58  57  95 CALM      30.13S VSB 1
LADYSMITH      CLEAR     57  56  95 CALM      30.14F
EAU CLAIRE     FOG       58  58 100 NE3       30.11R VSB 1/4
MENOMONIE      SUNNY     61  60  97 CALM      30.11S FOG
NEW RICHMOND   CLEAR     60  59  98 CALM      30.11S FOG
OSCEOLA        CLEAR     59  59 100 CALM      30.13S
$$

WIZ003>005-009-010-017-018-021000-
NORTH CENTRAL WISCONSIN

CITY           SKY/WX    TMP DP  RH WIND       PRES   REMARKS
WOODRUFF       CLEAR     52  46  79 CALM      30.15S
RHINELANDER    CLEAR     49  48  97 CALM      30.15S FOG
EAGLE RIVER    FOG       47  47 100 CALM      30.15S VSB 1/4
LAND O LAKES   CLEAR     44  44 100 CALM      30.16S
PHILLIPS       CLEAR     52  52  99 CALM      30.14S
TOMAHAWK       FOG       48  47  97 CALM      30.15R VSB 1/2
MEDFORD        FOG       53  53 100 CALM      30.14R VSB 1/2
MERRILL        FOG       50  50 100 CALM      30.14R VSB<1/4
$$

WIZ029-030-035-036-043>047-021000-
CENTRAL WISCONSIN

CITY           SKY/WX    TMP DP  RH WIND       PRES   REMARKS
WAUSAU         FOG       57  57 100 NW5       30.12R VSB 1/2
MOSINEE        FOG       54  54 100 S6        30.14R VSB 1
MARSHFIELD     CLEAR     56  55  97 S3        30.14R FOG
STEVENS POINT  CLEAR     54  53  97 CALM      30.14R
WAUPACA        CLEAR     56  54  93 CALM      30.13R
WAUTOMA        CLEAR     52  51  96 CALM      30.13R
WISC RAPIDS    CLEAR     56  54  93 CALM      30.14S
CAMP DOUGLAS   FOG       52  52 100 CALM      30.12S VSB 1/4
$$

WIZ011>013-019>022-031-037>040-048>050-021000-
NORTHEAST WISCONSIN

CITY           SKY/WX    TMP DP  RH WIND       PRES   REMARKS
ANTIGO         CLEAR     49  48  99 N3        30.14R FOG
STURGEON BAY   CLEAR     57  54  88 CALM      30.10R
GREEN BAY      CLEAR     59  56  89 W7        30.11R
MANITOWOC      CLEAR     61  57  87 CALM      30.11R
APPLETON       CLEAR     55  54  94 W9        30.12R
CLINTONVILLE   CLEAR     55  54  94 W3        30.12R
OSHKOSH        CLEAR     60  56  86 W5        30.11R
$$

WIZ032>034-041-042-053>061-021000-
SOUTHWEST WISCONSIN

CITY           SKY/WX    TMP DP  RH WIND       PRES   REMARKS
LA CROSSE      CLEAR     63  58  83 E3        30.11R
SPARTA         CLEAR     54  53  95 CALM      30.13R
VIROQUA        FAIR      57  56  96 CALM      30.13S
BOSCOBEL       CLEAR     55  52  89 CALM      30.12R
PRAIRIE DU CHI CLEAR     58  54  86 CALM      30.11R
PLATTEVILLE    FAIR      60  57  92 CALM      30.12S
$$

WIZ056-057-062-063-064-067-068-021000-
SOUTH CENTRAL WISCONSIN

CITY           SKY/WX    TMP DP  RH WIND       PRES   REMARKS
BARABOO/DELLS  CLEAR     56  54  93 CALM      30.12R
LONE ROCK      CLEAR     59  54  83 CALM      30.12R
WATERTOWN      CLEAR     56  56  99 CALM      30.11S
MADISON        FOG       56  54  93 CALM      30.11S VSB 1
MIDDLETON      FAIR      56  55  96 CALM      30.12R
MONROE         CLEAR     59  55  88 CALM      30.12R
JANESVILLE     CLEAR     55  54  94 CALM      30.10S
$$

WIZ051-052-058>065-066-070>072-021000-
SOUTHEAST WISCONSIN

CITY           SKY/WX    TMP DP  RH WIND       PRES   REMARKS
MILWAUKEE      PTCLDY    60  56  86 NW5       30.10R
WAUKESHA       CLEAR     57  55  94 W3        30.12S
MILWAUKEE/TIMM CLEAR     55  54  94 CALM      30.11S
RACINE         CLEAR     57  55  93 CALM      30.13R
BURLINGTON       N/A     52  52 100 CALM      30.12R FOG
KENOSHA        CLEAR     55  55 100 CALM      30.12R
FOND DU LAC    CLEAR     54  52  93 SE3       30.13R
SHEBOYGAN      CLEAR     60  55  83 NW7       30.11R
WEST BEND      CLEAR     59  54  82 CALM      30.11S
JUNEAU         MOCLDY    58  55  88 CALM      30.13R
$$

LSZ147-162-021000-
LAKE SUPERIOR

STATION/POSITION TIME  TEMP    WIND        PRES    WAVE
                       AIR SEA DIR/SP/G            HT/PER
                 (UTC) (F)     (DEG/KT/KT) (MB)    (FT/S)
W MID LAKE BUOY  0850   49 47   40/  4/  4 1019.8S   0
PORT WING        0800   56     170/  3/  3 1020.0R
SAXON HARBOR     0800             CALM     1019.6R
$$

LMZ867-665-643>646-021000-
LAKE MICHIGAN

STATION/POSITION TIME  TEMP    WIND        PRES    WAVE
                       AIR SEA DIR/SP/G            HT/PER
                 (UTC) (F)     (DEG/KT/KT) (MB)    (FT/S)
N MID LAKE BUOY  0850   59 58   40/  8/  8 1018.5R   0
NORTHPORT PIER   0800   64      80/  6/  7 1018.6S
SISTER BAY       0811   61        CALM       N/A
ALGOMA LAKESHORE 0836          320/  6/  7   N/A
KEWAUNEE LAKESHO 0800   57     340/  2/  3 1018.0R
SHEBOYGAN LAKESH 0900   66     280/  6/  7 1019.3R
PORT WASHINGTON  0800   63     310/  9/ 13 1019.3
ATWATER BUOY     0900   62     330/  2     1020.3R
MILWAUKEE LAKESH 0800   63     270/  1/  3   N/A
S MID LAKE BUOY  0850   64 64  310/  6/ 10 1019.2R   0
KENOSHA   LAKESH 0900   62     290/  5/  7 1019.3R
$$

TC  - TEMPERATURE IN CELSIUS
VSB - VISIBILITY IN STATUTE MILES
WCI - WIND CHILL INDEX
HX  - HEAT INDEX




USA.gov is the U.S. government's official web portal to all federal, state and local government web resources and services.